This is the latest recevied weather packets stored in our database for station/object WC4PEM-1. If no packets are shown the sender has not sent any weather packets the latest 10 day(s).
| Time | Temp. | Humidity | Pressure | Rain* | Wind** | Luminosity | Snow |
|---|---|---|---|---|---|---|---|
| 1778023703 | 27.78° C | 54% | 1013.2 hPa | 0 mm | - | 33 W/m² | - |
| 1778023403 | 27.78° C | 53% | 1013.2 hPa | 0 mm | - | 39 W/m² | - |
| 1778023104 | 27.78° C | 53% | 1013.3 hPa | 0 mm | - | 46 W/m² | - |
| 1778022803 | 27.78° C | 54% | 1013.2 hPa | 0 mm | - | 54 W/m² | - |
| 1778022503 | 28.33° C | 53% | 1013.2 hPa | 0 mm | - | 56 W/m² | - |
| 1778022203 | 28.33° C | 51% | 1013.2 hPa | 0 mm | - | 58 W/m² | - |
| 1778021903 | 28.33° C | 51% | 1013.2 hPa | 0 mm | - | 60 W/m² | - |
| 1778021603 | 28.89° C | 50% | 1013.2 hPa | 0 mm | - | 63 W/m² | - |
| 1778021303 | 28.89° C | 50% | 1013.3 hPa | 0 mm | - | 67 W/m² | - |
| 1778021003 | 28.89° C | 47% | 1013.3 hPa | 0 mm | - | 69 W/m² | - |
| 1778020703 | 28.89° C | 47% | 1013.2 hPa | 0 mm | - | 69 W/m² | - |
| 1778020403 | 28.89° C | 47% | 1013.3 hPa | 0 mm | - | 67 W/m² | - |
| 1778020103 | 29.44° C | 47% | 1013.2 hPa | 0 mm | - | 70 W/m² | - |
| 1778020011 | 29.44° C | 47% | 1013.1 hPa | 0 mm | - | 79 W/m² | - |
| 1778019803 | 29.44° C | 47% | 1013.1 hPa | 0 mm | - | 79 W/m² | - |
| 1778019504 | 29.44° C | 47% | 1013.1 hPa | 0 mm | - | 70 W/m² | - |
| 1778019203 | 29.44° C | 48% | 1013.2 hPa | 0 mm | - | 69 W/m² | - |
| 1778018903 | 29.44° C | 47% | 1013.1 hPa | 0 mm | - | 76 W/m² | - |
| 1778018603 | 29.44° C | 48% | 1013.1 hPa | 0 mm | - | 84 W/m² | - |
| 1778018303 | 29.44° C | 48% | 1013.1 hPa | 0 mm | - | 100 W/m² | - |
| 1778018161 | 29.44° C | 49% | 1013.1 hPa | 0 mm | - | 102 W/m² | - |
| 1778018003 | 29.44° C | 49% | 1013.1 hPa | 0 mm | - | 102 W/m² | - |
| 1778017822 | 29.44° C | 45% | 1013.1 hPa | 0 mm | - | 109 W/m² | - |
| 1778017703 | 29.44° C | 45% | 1013.1 hPa | 0 mm | - | 109 W/m² | - |
| 1778017403 | 29.44° C | 45% | 1013.2 hPa | 0 mm | - | 118 W/m² | - |
* Rain latest hour (hover to see other rain measurements)
** Current wind speed in m/s (hover to see current wind gust speed)